Regional Weather Roundup
Issued by NWS

Home | Current Version | Previous Version | Text Only | Print | Product List | Glossary On
Versions: 1 2 3 4 5 6 7 8 9 10 11 12 13 14 15 16 17 18 19 20 21 22 23 24 25 26 27
000
ASUS45 KSLC 192210
RWRUT

UTAH REGIONAL WEATHER ROUNDUP
NATIONAL WEATHER SERVICE SALT LAKE CITY UT
400 PM MDT SAT APR 19 2014

UTZ001>011-023>025-192300-

NORTHERN UTAH

CITY           SKY/WX    TMP DP  RH WIND       PRES   REMARKS
HILL AFB       PTSUNNY   66  35  31 W8        30.01F
LOGAN          SUNNY     67  37  33 CALM      29.98F
OGDEN          PTSUNNY   67  37  33 NW9       30.00F
PROVO AIRPORT  PTSUNNY   70  34  26 SW6       29.99F
SALT LAKE CITY PTSUNNY   71  39  31 N10G18    29.98F
VERNAL         CLOUDY    65  35  33 SW16      30.01S
WENDOVER       MOSUNNY   70  34  26 SE9       29.97F
HEBER CITY     MOSUNNY   70  32  24 SW9G17    30.01F
WEST JORDAN    MOSUNNY   68  45  42 NW10      30.00F

$$

UTZ012>022-026-027-192300-

SOUTHERN UTAH

CITY           SKY/WX    TMP DP  RH WIND       PRES   REMARKS
BRYCE CANYON   CLOUDY    55  35  47 S12       30.16F
CEDAR CITY     PTSUNNY   67  30  25 VRB7G22   30.01F
MILFORD        MOSUNNY   73  23  15 CALM      29.96F
MOAB/CYNLANDS  SUNNY     65  41  41 VRB6      29.99F
PRICE          PTSUNNY   66  34  30 N15G26    30.05S
ST GEORGE      PTCLDY    81  30  16 E6        29.93F
KANAB            N/A     64  36  34 E6        30.08F

$$

REGIONAL REPORTS     COLORADO/ARIZONA

CITY           SKY/WX    TMP DP  RH WIND       PRES   REMARKS
CRAIG, CO      CLOUDY    57  38  48 SW7       30.08F
GRAND JUNCTION MOSUNNY   62  42  47 W7        30.03F
RIFLE          MOSUNNY   62  39  42 W13       30.03F
MONTROSE       CLOUDY    63  39  41 NW6       30.06F
CORTEZ         PTSUNNY   63  31  30 CALM      30.06F
PAGE, AZ       MOSUNNY   74  31  20 VRB5      29.98F
GRAND CANYON   LGT RAIN  56  36  47 E7        30.12S
KINGMAN        SUNNY     73  38  27 S6        29.98F
FLAGSTAFF      CLOUDY    58  32  37 W17G33    30.11F

$$

REGIONAL REPORTS    NEVADA/IDAHO/WYOMING

CITY           SKY/WX    TMP DP  RH WIND       PRES   REMARKS
LAS VEGAS, NV  MOSUNNY   82  32  16 S10       29.87F
ELY            CLOUDY    64  32  30 N8        30.05S
ELKO           SUNNY     70  27  20 W12G21    29.97F
POCATELLO, ID  MOSUNNY   71  21  15 W21G28    29.97F
BURLEY         SUNNY     69  24  18 VRB5      29.93F
EVANSTON, WY   MOSUNNY   63  31  30 W18G29    30.07F
ROCK SPRINGS   PTSUNNY   64  25  22 W21       30.04F

$$



USA.gov is the U.S. government's official web portal to all federal, state and local government web resources and services.